Year,Month,Day,Hour,Minute,Value (Times are PST for windgust in km/hr)
2020,10,23,00,00,4.80
2020,10,23,00,01,6.40
2020,10,23,00,02,4.80
2020,10,23,00,03,4.80
2020,10,23,00,04,4.80
2020,10,23,00,05,4.80
2020,10,23,00,06,6.40
2020,10,23,00,07,4.80
2020,10,23,00,08,4.80
2020,10,23,00,09,6.40
2020,10,23,00,10,6.40
2020,10,23,00,11,4.80
2020,10,23,00,12,4.80
2020,10,23,00,13,4.80
2020,10,23,00,14,3.20
2020,10,23,00,15,4.80
2020,10,23,00,16,4.80
2020,10,23,00,17,4.80
2020,10,23,00,18,4.80
2020,10,23,00,19,3.20
2020,10,23,00,20,3.20
2020,10,23,00,21,3.20
2020,10,23,00,22,4.80
2020,10,23,00,23,3.20
2020,10,23,00,24,3.20
2020,10,23,00,25,4.80
2020,10,23,00,26,3.20
2020,10,23,00,27,3.20
2020,10,23,00,28,3.20
2020,10,23,00,29,3.20
2020,10,23,00,30,3.20
2020,10,23,00,31,1.60
2020,10,23,00,32,1.60
2020,10,23,00,33,1.60
2020,10,23,00,34,1.60
2020,10,23,00,36,1.60
2020,10,23,00,37,1.60
2020,10,23,00,38,1.60
2020,10,23,00,55,3.20
2020,10,23,00,56,3.20
2020,10,23,00,57,3.20
2020,10,23,00,58,3.20
2020,10,23,01,11,1.60
2020,10,23,01,13,1.60
2020,10,23,01,14,3.20
2020,10,23,01,15,3.20
2020,10,23,01,16,1.60
2020,10,23,01,17,1.60
2020,10,23,01,27,3.20
2020,10,23,01,28,4.80
2020,10,23,01,29,4.80
2020,10,23,01,30,4.80
2020,10,23,01,31,3.20
2020,10,23,01,32,3.20
2020,10,23,01,33,3.20
2020,10,23,01,35,1.60
2020,10,23,01,52,1.60
2020,10,23,01,55,1.60
2020,10,23,01,56,1.60
2020,10,23,01,59,1.60
2020,10,23,02,02,1.60
2020,10,23,02,59,4.80
2020,10,23,03,00,4.80
2020,10,23,03,01,4.80
2020,10,23,03,02,3.20
2020,10,23,03,03,1.60
2020,10,23,03,10,1.60
2020,10,23,03,11,3.20
2020,10,23,03,12,3.20
2020,10,23,03,13,3.20
2020,10,23,03,15,1.60
2020,10,23,03,29,4.80
2020,10,23,03,30,4.80
2020,10,23,03,31,4.80
2020,10,23,03,32,4.80
2020,10,23,03,33,3.20
2020,10,23,03,34,1.60
2020,10,23,03,43,1.60
2020,10,23,03,44,3.20
2020,10,23,03,45,3.20
2020,10,23,03,46,3.20
2020,10,23,03,47,3.20
2020,10,23,03,48,3.20
2020,10,23,03,49,1.60
2020,10,23,03,50,4.80
2020,10,23,03,51,3.20
2020,10,23,03,52,1.60
2020,10,23,03,53,1.60
2020,10,23,03,54,3.20
2020,10,23,03,55,1.60
2020,10,23,03,59,3.20
2020,10,23,04,00,3.20
2020,10,23,04,01,4.80
2020,10,23,04,02,4.80
2020,10,23,04,03,3.20
2020,10,23,04,04,3.20
2020,10,23,04,05,4.80
2020,10,23,04,06,3.20
2020,10,23,04,08,1.60
2020,10,23,04,10,1.60
2020,10,23,04,11,3.20
2020,10,23,04,12,4.80
2020,10,23,04,13,6.40
2020,10,23,04,14,8.10
2020,10,23,04,15,8.10
2020,10,23,04,16,8.10
2020,10,23,04,17,6.40
2020,10,23,04,18,6.40
2020,10,23,04,19,6.40
2020,10,23,04,20,6.40
2020,10,23,04,21,4.80
2020,10,23,04,22,3.20
2020,10,23,04,23,4.80
2020,10,23,04,24,6.40
2020,10,23,04,25,4.80
2020,10,23,04,26,4.80
2020,10,23,04,27,8.10
2020,10,23,04,28,6.40
2020,10,23,04,29,8.10
2020,10,23,04,30,9.60
2020,10,23,04,31,8.10
2020,10,23,04,32,8.10
2020,10,23,04,33,6.40
2020,10,23,04,34,6.40
2020,10,23,04,35,6.40
2020,10,23,04,36,4.80
2020,10,23,04,37,8.10
2020,10,23,04,38,9.60
2020,10,23,04,39,9.60
2020,10,23,04,40,3.20
2020,10,23,04,41,9.60
2020,10,23,04,42,8.10
2020,10,23,04,43,6.40
2020,10,23,04,44,6.40
2020,10,23,04,45,6.40
2020,10,23,04,46,6.40
2020,10,23,04,47,4.80
2020,10,23,04,48,4.80
2020,10,23,04,49,3.20
2020,10,23,04,50,4.80
2020,10,23,04,51,4.80
2020,10,23,04,52,8.10
2020,10,23,04,53,6.40
2020,10,23,04,54,4.80
2020,10,23,04,55,4.80
2020,10,23,04,56,1.60
2020,10,23,04,57,3.20
2020,10,23,04,58,4.80
2020,10,23,04,59,4.80
2020,10,23,05,00,8.10
2020,10,23,05,01,4.80
2020,10,23,05,02,1.60
2020,10,23,05,03,4.80
2020,10,23,05,04,4.80
2020,10,23,05,05,3.20
2020,10,23,05,06,3.20
2020,10,23,05,07,1.60
2020,10,23,05,08,1.60
2020,10,23,05,09,1.60
2020,10,23,05,17,1.60
2020,10,23,05,32,4.80
2020,10,23,05,33,3.20
2020,10,23,05,34,4.80
2020,10,23,05,35,6.40
2020,10,23,05,36,6.40
2020,10,23,05,37,6.40
2020,10,23,05,38,6.40
2020,10,23,05,39,8.10
2020,10,23,05,40,8.10
2020,10,23,05,41,4.80
2020,10,23,05,42,9.60
2020,10,23,05,43,9.60
2020,10,23,05,44,11.30
2020,10,23,05,45,8.10
2020,10,23,05,46,4.80
2020,10,23,05,47,6.40
2020,10,23,05,48,3.20
2020,10,23,05,55,3.20
2020,10,23,05,56,3.20
2020,10,23,05,57,6.40
2020,10,23,05,58,6.40
2020,10,23,05,59,4.80
2020,10,23,06,00,4.80
2020,10,23,06,01,4.80
2020,10,23,06,02,4.80
2020,10,23,06,03,4.80
2020,10,23,06,04,4.80
2020,10,23,06,05,4.80
2020,10,23,06,06,4.80
2020,10,23,06,07,4.80
2020,10,23,06,08,4.80
2020,10,23,06,09,4.80
2020,10,23,06,10,3.20
2020,10,23,06,11,3.20
2020,10,23,06,12,4.80
2020,10,23,06,13,1.60
2020,10,23,06,14,3.20
2020,10,23,06,15,3.20
2020,10,23,06,17,1.60
2020,10,23,06,28,1.60
2020,10,23,06,34,3.20
2020,10,23,06,35,3.20
2020,10,23,06,36,3.20
2020,10,23,06,37,1.60
2020,10,23,06,38,3.20
2020,10,23,06,39,4.80
2020,10,23,06,40,3.20
2020,10,23,06,41,3.20
2020,10,23,06,42,3.20
2020,10,23,06,44,1.60
2020,10,23,06,45,3.20
2020,10,23,06,46,3.20
2020,10,23,06,47,3.20
2020,10,23,06,48,1.60
2020,10,23,06,49,3.20
2020,10,23,06,50,3.20
2020,10,23,06,51,3.20
2020,10,23,06,52,3.20
2020,10,23,06,53,3.20
2020,10,23,06,54,4.80
2020,10,23,06,55,6.40
2020,10,23,06,56,4.80
2020,10,23,06,57,6.40
2020,10,23,06,58,11.30
2020,10,23,06,59,11.30
2020,10,23,07,00,11.30
2020,10,23,07,01,8.10
2020,10,23,07,02,8.10
2020,10,23,07,03,11.30
2020,10,23,07,04,8.10
2020,10,23,07,05,9.60
2020,10,23,07,06,11.30
2020,10,23,07,07,11.30
2020,10,23,07,08,9.60
2020,10,23,07,09,11.30
2020,10,23,07,10,9.60
2020,10,23,07,11,14.50
2020,10,23,07,12,11.30
2020,10,23,07,13,8.10
2020,10,23,07,14,11.30
2020,10,23,07,15,16.10
2020,10,23,07,16,17.70
2020,10,23,07,17,14.50
2020,10,23,07,18,19.30
2020,10,23,07,19,19.30
2020,10,23,07,20,22.50
2020,10,23,07,21,16.10
2020,10,23,07,22,11.30
2020,10,23,07,23,11.30
2020,10,23,07,24,11.30
2020,10,23,07,25,11.30
2020,10,23,07,26,11.30
2020,10,23,07,27,11.30
2020,10,23,07,28,11.30
2020,10,23,07,29,11.30
2020,10,23,07,30,11.30
2020,10,23,07,31,11.30
2020,10,23,09,46,9.60
2020,10,23,09,47,9.60
2020,10,23,09,48,8.10
2020,10,23,09,49,8.10
2020,10,23,09,50,8.10
2020,10,23,09,51,6.40
2020,10,23,09,52,9.60
2020,10,23,09,53,6.40
2020,10,23,09,54,11.30
2020,10,23,09,55,9.60
2020,10,23,09,56,11.30
2020,10,23,09,57,11.30
2020,10,23,09,58,12.90
2020,10,23,09,59,8.10
2020,10,23,10,00,9.60
2020,10,23,10,01,9.60
2020,10,23,10,02,16.10
2020,10,23,10,03,8.10
2020,10,23,10,04,9.60
2020,10,23,10,05,8.10
2020,10,23,10,06,6.40
2020,10,23,10,07,12.90
2020,10,23,10,08,11.30
2020,10,23,10,09,11.30
2020,10,23,10,10,11.30
2020,10,23,10,11,11.30
2020,10,23,10,12,19.30
2020,10,23,10,13,16.10
2020,10,23,10,14,14.50
2020,10,23,10,15,11.30
2020,10,23,10,16,11.30
2020,10,23,10,17,9.60
2020,10,23,10,18,17.70
2020,10,23,10,19,11.30
2020,10,23,10,20,11.30
2020,10,23,10,21,19.30
2020,10,23,10,22,14.50
2020,10,23,10,23,14.50
2020,10,23,10,24,19.30
2020,10,23,10,25,16.10
2020,10,23,10,26,25.70
2020,10,23,10,27,19.30
2020,10,23,10,28,16.10
2020,10,23,10,29,16.10
2020,10,23,10,30,8.10
2020,10,23,10,31,6.40
2020,10,23,10,32,8.10
2020,10,23,10,33,16.10
2020,10,23,10,34,11.30
2020,10,23,10,35,12.90
2020,10,23,10,36,9.60
2020,10,23,10,37,11.30
2020,10,23,10,38,16.10
2020,10,23,10,39,17.70
2020,10,23,10,40,11.30
2020,10,23,10,41,11.30
2020,10,23,10,42,14.50
2020,10,23,10,43,11.30
2020,10,23,10,44,16.10
2020,10,23,10,45,17.70
2020,10,23,10,46,12.90
2020,10,23,10,47,8.10
2020,10,23,10,48,14.50
2020,10,23,10,49,17.70
2020,10,23,10,50,9.60
2020,10,23,10,51,16.10
2020,10,23,10,52,17.70
2020,10,23,10,53,17.70
2020,10,23,10,54,17.70
2020,10,23,10,55,16.10
2020,10,23,10,56,14.50
2020,10,23,10,57,20.90
2020,10,23,10,58,16.10
2020,10,23,10,59,17.70
2020,10,23,11,00,16.10
2020,10,23,11,01,14.50
2020,10,23,11,02,17.70
2020,10,23,11,03,16.10
2020,10,23,11,04,14.50
2020,10,23,11,05,11.30
2020,10,23,11,06,19.30
2020,10,23,11,07,11.30
2020,10,23,11,08,9.60
2020,10,23,11,09,14.50
2020,10,23,11,10,9.60
2020,10,23,11,11,11.30
2020,10,23,11,12,8.10
2020,10,23,11,13,9.60
2020,10,23,11,14,16.10
2020,10,23,11,15,9.60
2020,10,23,11,16,8.10
2020,10,23,11,17,8.10
2020,10,23,11,18,11.30
2020,10,23,11,19,9.60
2020,10,23,11,20,17.70
2020,10,23,11,21,14.50
2020,10,23,11,22,20.90
2020,10,23,11,23,12.90
2020,10,23,11,24,16.10
2020,10,23,11,25,19.30
2020,10,23,11,26,17.70
2020,10,23,11,27,16.10
2020,10,23,11,28,17.70
2020,10,23,11,29,16.10
2020,10,23,11,30,16.10
2020,10,23,11,31,9.60
2020,10,23,11,32,19.30
2020,10,23,11,33,11.30
2020,10,23,11,34,8.10
2020,10,23,11,35,16.10
2020,10,23,11,36,22.50
2020,10,23,11,37,12.90
2020,10,23,11,38,14.50
2020,10,23,11,39,16.10
2020,10,23,11,40,12.90
2020,10,23,11,41,16.10
2020,10,23,11,42,11.30
2020,10,23,11,43,8.10
2020,10,23,11,44,11.30
2020,10,23,11,45,9.60
2020,10,23,11,46,9.60
2020,10,23,11,47,11.30
2020,10,23,11,48,14.50
2020,10,23,11,49,12.90
2020,10,23,11,50,11.30
2020,10,23,11,51,11.30
2020,10,23,11,52,6.40
2020,10,23,11,53,9.60
2020,10,23,11,54,17.70
2020,10,23,11,55,17.70
2020,10,23,11,56,14.50
2020,10,23,11,57,8.10
2020,10,23,11,58,8.10
2020,10,23,11,59,11.30
2020,10,23,12,00,14.50
2020,10,23,12,01,11.30
2020,10,23,12,02,12.90
2020,10,23,12,03,8.10
2020,10,23,12,04,9.60
2020,10,23,12,05,11.30
2020,10,23,12,06,6.40
2020,10,23,12,07,9.60
2020,10,23,12,08,9.60
2020,10,23,12,09,14.50
2020,10,23,12,10,19.30
2020,10,23,12,11,11.30
2020,10,23,12,12,11.30
2020,10,23,12,13,17.70
2020,10,23,12,14,14.50
2020,10,23,12,15,17.70
2020,10,23,12,16,11.30
2020,10,23,12,17,19.30
2020,10,23,12,18,20.90
2020,10,23,12,19,14.50
2020,10,23,12,20,9.60
2020,10,23,12,21,16.10
2020,10,23,12,22,8.10
2020,10,23,12,23,9.60
2020,10,23,12,24,12.90
2020,10,23,12,25,11.30
2020,10,23,12,26,17.70
2020,10,23,12,27,9.60
2020,10,23,12,28,9.60
2020,10,23,12,29,8.10
2020,10,23,12,30,8.10
2020,10,23,12,31,8.10
2020,10,23,12,32,16.10
2020,10,23,12,33,16.10
2020,10,23,12,34,9.60
2020,10,23,12,35,11.30
2020,10,23,12,36,14.50
2020,10,23,12,37,9.60
2020,10,23,12,38,8.10
2020,10,23,12,39,12.90
2020,10,23,12,40,9.60
2020,10,23,12,41,12.90
2020,10,23,12,42,9.60
2020,10,23,12,43,11.30
2020,10,23,12,44,9.60
2020,10,23,12,45,9.60
2020,10,23,12,46,6.40
2020,10,23,12,47,9.60
2020,10,23,12,48,14.50
2020,10,23,12,49,12.90
2020,10,23,12,50,11.30
2020,10,23,12,51,8.10
2020,10,23,12,52,9.60
2020,10,23,12,53,9.60
2020,10,23,12,54,9.60
2020,10,23,12,55,6.40
2020,10,23,12,56,8.10
2020,10,23,12,57,11.30
2020,10,23,12,58,11.30
2020,10,23,12,59,11.30
2020,10,23,13,00,6.40
2020,10,23,13,01,8.10
2020,10,23,13,02,6.40
2020,10,23,13,03,6.40
2020,10,23,13,04,8.10
2020,10,23,13,05,9.60
2020,10,23,13,06,14.50
2020,10,23,13,07,14.50
2020,10,23,13,08,9.60
2020,10,23,13,09,4.80
2020,10,23,13,10,1.60
2020,10,23,13,11,8.10
2020,10,23,13,12,8.10
2020,10,23,13,13,11.30
2020,10,23,13,14,6.40
2020,10,23,13,15,4.80
2020,10,23,13,16,8.10
2020,10,23,13,17,9.60
2020,10,23,13,18,6.40
2020,10,23,13,19,11.30
2020,10,23,13,20,8.10
2020,10,23,13,21,9.60
2020,10,23,13,22,11.30
2020,10,23,13,23,8.10
2020,10,23,13,24,9.60
2020,10,23,13,25,9.60
2020,10,23,13,26,6.40
2020,10,23,13,27,17.70
2020,10,23,13,28,9.60
2020,10,23,13,29,11.30
2020,10,23,13,30,4.80
2020,10,23,13,31,8.10
2020,10,23,13,32,11.30
2020,10,23,13,33,14.50
2020,10,23,13,34,14.50
2020,10,23,13,35,9.60
2020,10,23,13,36,11.30
2020,10,23,13,37,12.90
2020,10,23,13,38,9.60
2020,10,23,13,39,9.60
2020,10,23,13,40,11.30
2020,10,23,13,41,9.60
2020,10,23,13,42,14.50
2020,10,23,13,43,17.70
2020,10,23,13,44,11.30
2020,10,23,13,45,9.60
2020,10,23,13,46,12.90
2020,10,23,13,47,14.50
2020,10,23,13,48,6.40
2020,10,23,13,49,11.30
2020,10,23,13,50,14.50
2020,10,23,13,51,6.40
2020,10,23,13,52,6.40
2020,10,23,13,53,8.10
2020,10,23,13,54,9.60
2020,10,23,13,55,6.40
2020,10,23,13,56,12.90
2020,10,23,13,57,9.60
2020,10,23,13,58,12.90
2020,10,23,13,59,8.10
2020,10,23,14,00,11.30
2020,10,23,14,01,16.10
2020,10,23,14,02,17.70
2020,10,23,14,03,16.10
2020,10,23,14,04,11.30
2020,10,23,14,05,11.30
2020,10,23,14,06,9.60
2020,10,23,14,07,14.50
2020,10,23,14,08,16.10
2020,10,23,14,09,16.10
2020,10,23,14,10,11.30
2020,10,23,14,11,9.60
2020,10,23,14,12,19.30
2020,10,23,14,13,9.60
2020,10,23,14,14,9.60
2020,10,23,14,15,16.10
2020,10,23,14,16,11.30
2020,10,23,14,17,6.40
2020,10,23,14,18,9.60
2020,10,23,14,19,14.50
2020,10,23,14,20,11.30
2020,10,23,14,21,8.10
2020,10,23,14,22,9.60
2020,10,23,14,23,11.30
2020,10,23,14,24,16.10
2020,10,23,14,25,9.60
2020,10,23,14,26,19.30
2020,10,23,14,27,17.70
2020,10,23,14,28,9.60
2020,10,23,14,29,12.90
2020,10,23,14,30,9.60
2020,10,23,14,31,9.60
2020,10,23,14,32,9.60
2020,10,23,14,33,8.10
2020,10,23,14,34,9.60
2020,10,23,14,35,22.50
2020,10,23,14,36,16.10
2020,10,23,14,37,16.10
2020,10,23,14,38,16.10
2020,10,23,14,39,14.50
2020,10,23,14,40,8.10
2020,10,23,14,41,8.10
2020,10,23,14,42,11.30
2020,10,23,14,43,17.70
2020,10,23,14,44,14.50
2020,10,23,14,45,14.50
2020,10,23,14,46,22.50
2020,10,23,14,47,25.70
2020,10,23,14,48,27.40
2020,10,23,14,49,20.90
2020,10,23,14,50,25.70
2020,10,23,14,51,24.20
2020,10,23,14,52,32.20
2020,10,23,14,53,25.70
2020,10,23,14,54,22.50
2020,10,23,14,55,25.70
2020,10,23,14,56,25.70
2020,10,23,14,57,25.70
2020,10,23,14,58,24.20
2020,10,23,14,59,27.40
2020,10,23,15,00,22.50
2020,10,23,15,01,19.30
2020,10,23,15,02,14.50
2020,10,23,15,03,22.50
2020,10,23,15,04,19.30
2020,10,23,15,05,19.30
2020,10,23,15,06,11.30
2020,10,23,15,07,20.90
2020,10,23,15,08,22.50
2020,10,23,15,09,25.70
2020,10,23,15,10,27.40
2020,10,23,15,11,25.70
2020,10,23,15,12,16.10
2020,10,23,15,13,25.70
2020,10,23,15,14,25.70
2020,10,23,15,15,24.20
2020,10,23,15,16,24.20
2020,10,23,15,17,27.40
2020,10,23,15,18,30.60
2020,10,23,15,19,33.80
2020,10,23,15,20,24.20
2020,10,23,15,21,22.50
2020,10,23,15,22,22.50
2020,10,23,15,23,27.40
2020,10,23,15,24,29.00
2020,10,23,15,25,22.50
2020,10,23,15,26,22.50
2020,10,23,15,27,30.60
2020,10,23,15,28,19.30
2020,10,23,15,29,27.40
2020,10,23,15,30,27.40
2020,10,23,15,31,22.50
2020,10,23,15,32,27.40
2020,10,23,15,33,24.20
2020,10,23,15,34,22.50
2020,10,23,15,35,22.50
2020,10,23,15,36,24.20
2020,10,23,15,37,25.70
2020,10,23,15,38,17.70
2020,10,23,15,39,25.70
2020,10,23,15,40,25.70
2020,10,23,15,41,27.40
2020,10,23,15,42,14.50
2020,10,23,15,43,16.10
2020,10,23,15,44,19.30
2020,10,23,15,45,20.90
2020,10,23,15,46,22.50
2020,10,23,15,47,25.70
2020,10,23,15,48,20.90
2020,10,23,15,49,20.90
2020,10,23,15,50,25.70
2020,10,23,15,51,20.90
2020,10,23,15,52,14.50
2020,10,23,15,53,20.90
2020,10,23,15,54,24.20
2020,10,23,15,55,20.90
2020,10,23,15,56,19.30
2020,10,23,15,57,20.90
2020,10,23,15,58,20.90
2020,10,23,15,59,22.50
2020,10,23,16,00,22.50
2020,10,23,16,01,20.90
2020,10,23,16,02,27.40
2020,10,23,16,03,19.30
2020,10,23,16,04,24.20
2020,10,23,16,05,16.10
2020,10,23,16,06,19.30
2020,10,23,16,07,17.70
2020,10,23,16,08,11.30
2020,10,23,16,09,19.30
2020,10,23,16,10,24.20
2020,10,23,16,11,22.50
2020,10,23,16,12,16.10
2020,10,23,16,13,11.30
2020,10,23,16,14,22.50
2020,10,23,16,15,17.70
2020,10,23,16,16,20.90
2020,10,23,16,17,14.50
2020,10,23,16,18,9.60
2020,10,23,16,19,20.90
2020,10,23,16,20,19.30
2020,10,23,16,21,11.30
2020,10,23,16,22,12.90
2020,10,23,16,23,11.30
2020,10,23,16,24,17.70
2020,10,23,16,25,14.50
2020,10,23,16,26,16.10
2020,10,23,16,27,14.50
2020,10,23,16,28,11.30
2020,10,23,16,29,11.30
2020,10,23,16,30,9.60
2020,10,23,16,31,16.10
2020,10,23,16,32,11.30
2020,10,23,16,33,17.70
2020,10,23,16,34,17.70
2020,10,23,16,35,16.10
2020,10,23,16,36,16.10
2020,10,23,16,37,11.30
2020,10,23,16,38,16.10
2020,10,23,16,39,9.60
2020,10,23,16,40,9.60
2020,10,23,16,41,9.60
2020,10,23,16,42,17.70
2020,10,23,16,43,9.60
2020,10,23,16,44,9.60
2020,10,23,16,45,11.30
2020,10,23,16,46,6.40
2020,10,23,16,47,11.30
2020,10,23,16,48,16.10
2020,10,23,16,49,11.30
2020,10,23,16,50,14.50
2020,10,23,16,51,9.60
2020,10,23,16,52,17.70
2020,10,23,16,53,9.60
2020,10,23,16,54,14.50
2020,10,23,16,55,16.10
2020,10,23,16,56,11.30
2020,10,23,16,57,11.30
2020,10,23,16,58,19.30
2020,10,23,16,59,20.90
2020,10,23,17,00,16.10
2020,10,23,17,01,19.30
2020,10,23,17,02,19.30
2020,10,23,17,03,17.70
2020,10,23,17,04,14.50
2020,10,23,17,05,9.60
2020,10,23,17,06,16.10
2020,10,23,17,07,14.50
2020,10,23,17,08,16.10
2020,10,23,17,09,14.50
2020,10,23,17,10,11.30
2020,10,23,17,11,12.90
2020,10,23,17,12,19.30
2020,10,23,17,13,17.70
2020,10,23,17,14,9.60
2020,10,23,17,15,17.70
2020,10,23,17,16,9.60
2020,10,23,17,17,17.70
2020,10,23,17,18,17.70
2020,10,23,17,19,19.30
2020,10,23,17,20,14.50
2020,10,23,17,21,14.50
2020,10,23,17,22,17.70
2020,10,23,17,23,17.70
2020,10,23,17,24,16.10
2020,10,23,17,25,19.30
2020,10,23,17,26,11.30
2020,10,23,17,27,16.10
2020,10,23,17,28,16.10
2020,10,23,17,29,20.90
2020,10,23,17,30,9.60
2020,10,23,17,31,9.60
2020,10,23,17,32,11.30
2020,10,23,17,33,8.10
2020,10,23,17,34,19.30
2020,10,23,17,35,22.50
2020,10,23,17,36,20.90
2020,10,23,17,37,16.10
2020,10,23,17,38,11.30
2020,10,23,17,39,16.10
2020,10,23,17,40,9.60
2020,10,23,17,41,14.50
2020,10,23,17,42,12.90
2020,10,23,17,43,20.90
2020,10,23,17,44,19.30
2020,10,23,17,45,16.10
2020,10,23,17,46,11.30
2020,10,23,17,47,16.10
2020,10,23,17,48,17.70
2020,10,23,17,49,9.60
2020,10,23,17,50,9.60
2020,10,23,17,51,20.90
2020,10,23,17,52,20.90
2020,10,23,17,53,14.50
2020,10,23,17,54,11.30
2020,10,23,17,55,17.70
2020,10,23,17,56,11.30
2020,10,23,17,57,16.10
2020,10,23,17,58,16.10
2020,10,23,17,59,11.30
2020,10,23,18,00,19.30
2020,10,23,18,01,17.70
2020,10,23,18,02,17.70
2020,10,23,18,03,16.10
2020,10,23,18,04,17.70
2020,10,23,18,05,17.70
2020,10,23,18,06,14.50
2020,10,23,18,07,19.30
2020,10,23,18,08,16.10
2020,10,23,18,09,16.10
2020,10,23,18,10,16.10
2020,10,23,18,11,14.50
2020,10,23,18,12,9.60
2020,10,23,18,13,8.10
2020,10,23,18,14,8.10
2020,10,23,18,15,8.10
2020,10,23,18,16,9.60
2020,10,23,18,17,8.10
2020,10,23,18,18,8.10
2020,10,23,18,19,14.50
2020,10,23,18,20,9.60
2020,10,23,18,21,12.90
2020,10,23,18,22,8.10
2020,10,23,18,23,11.30
2020,10,23,18,24,14.50
2020,10,23,18,25,8.10
2020,10,23,18,26,17.70
2020,10,23,18,27,9.60
2020,10,23,18,28,6.40
2020,10,23,18,29,11.30
2020,10,23,18,30,14.50
2020,10,23,18,31,6.40
2020,10,23,18,32,14.50
2020,10,23,18,33,17.70
2020,10,23,18,34,11.30
2020,10,23,18,35,17.70
2020,10,23,18,36,8.10
2020,10,23,18,37,6.40
2020,10,23,18,38,6.40
2020,10,23,18,39,4.80
2020,10,23,18,40,8.10
2020,10,23,18,41,9.60
2020,10,23,18,42,11.30
2020,10,23,18,43,9.60
2020,10,23,18,44,8.10
2020,10,23,18,45,12.90
2020,10,23,18,46,11.30
2020,10,23,18,47,16.10
2020,10,23,18,48,11.30
2020,10,23,18,49,11.30
2020,10,23,18,50,9.60
2020,10,23,18,51,9.60
2020,10,23,18,52,9.60
2020,10,23,18,53,8.10
2020,10,23,18,54,11.30
2020,10,23,18,55,9.60
2020,10,23,18,56,8.10
2020,10,23,18,57,9.60
2020,10,23,18,58,8.10
2020,10,23,18,59,6.40
2020,10,23,19,00,6.40
2020,10,23,19,01,8.10
2020,10,23,19,02,6.40
2020,10,23,19,03,6.40
2020,10,23,19,04,6.40
2020,10,23,19,05,6.40
2020,10,23,19,06,6.40
2020,10,23,19,07,6.40
2020,10,23,19,08,6.40
2020,10,23,19,09,8.10
2020,10,23,19,10,8.10
2020,10,23,19,11,8.10
2020,10,23,19,12,8.10
2020,10,23,19,13,6.40
2020,10,23,19,14,6.40
2020,10,23,19,15,6.40
2020,10,23,19,16,4.80
2020,10,23,19,17,8.10
2020,10,23,19,18,8.10
2020,10,23,19,19,6.40
2020,10,23,19,20,8.10
2020,10,23,19,21,6.40
2020,10,23,19,22,8.10
2020,10,23,19,23,8.10
2020,10,23,19,24,8.10
2020,10,23,19,25,8.10
2020,10,23,19,26,9.60
2020,10,23,19,27,8.10
2020,10,23,19,28,6.40
2020,10,23,19,29,4.80
2020,10,23,19,30,6.40
2020,10,23,19,31,6.40
2020,10,23,19,32,4.80
2020,10,23,19,33,6.40
2020,10,23,19,34,6.40
2020,10,23,19,35,6.40
2020,10,23,19,36,4.80
2020,10,23,19,37,6.40
2020,10,23,19,38,8.10
2020,10,23,19,39,6.40
2020,10,23,19,40,8.10
2020,10,23,19,41,6.40
2020,10,23,19,42,6.40
2020,10,23,19,43,6.40
2020,10,23,19,44,8.10
2020,10,23,19,45,6.40
2020,10,23,19,46,6.40
2020,10,23,19,47,6.40
2020,10,23,19,48,9.60
2020,10,23,19,49,8.10
2020,10,23,19,50,6.40
2020,10,23,19,51,4.80
2020,10,23,19,52,6.40
2020,10,23,19,53,6.40
2020,10,23,19,54,8.10
2020,10,23,19,55,8.10
2020,10,23,19,56,6.40
2020,10,23,19,57,6.40
2020,10,23,19,58,8.10
2020,10,23,19,59,6.40
2020,10,23,20,00,8.10
2020,10,23,20,01,6.40
2020,10,23,20,02,4.80
2020,10,23,20,03,3.20
2020,10,23,20,04,4.80
2020,10,23,20,05,4.80
2020,10,23,20,06,3.20
2020,10,23,20,07,3.20
2020,10,23,20,08,6.40
2020,10,23,20,09,8.10
2020,10,23,20,10,6.40
2020,10,23,20,11,6.40
2020,10,23,20,12,6.40
2020,10,23,20,13,8.10
2020,10,23,20,14,4.80
2020,10,23,20,15,4.80
2020,10,23,20,16,4.80
2020,10,23,20,17,6.40
2020,10,23,20,18,6.40
2020,10,23,20,19,8.10
2020,10,23,20,20,6.40
2020,10,23,20,21,4.80
2020,10,23,20,22,6.40
2020,10,23,20,23,6.40
2020,10,23,20,24,8.10
2020,10,23,20,25,4.80
2020,10,23,20,26,6.40
2020,10,23,20,27,6.40
2020,10,23,20,28,6.40
2020,10,23,20,29,6.40
2020,10,23,20,30,6.40
2020,10,23,20,31,6.40
2020,10,23,20,32,8.10
2020,10,23,20,33,14.50
2020,10,23,20,34,4.80
2020,10,23,20,35,4.80
2020,10,23,20,36,6.40
2020,10,23,20,37,6.40
2020,10,23,20,38,6.40
2020,10,23,20,39,9.60
2020,10,23,20,40,9.60
2020,10,23,20,41,8.10
2020,10,23,20,42,9.60
2020,10,23,20,43,8.10
2020,10,23,20,44,8.10
2020,10,23,20,45,8.10
2020,10,23,20,46,6.40
2020,10,23,20,47,6.40
2020,10,23,20,48,8.10
2020,10,23,20,49,9.60
2020,10,23,20,50,6.40
2020,10,23,20,51,8.10
2020,10,23,20,52,9.60
2020,10,23,20,53,11.30
2020,10,23,20,54,9.60
2020,10,23,20,55,9.60
2020,10,23,20,56,9.60
2020,10,23,20,57,11.30
2020,10,23,20,58,9.60
2020,10,23,20,59,9.60
2020,10,23,21,00,11.30
2020,10,23,21,01,11.30
2020,10,23,21,02,14.50
2020,10,23,21,03,9.60
2020,10,23,21,04,14.50
2020,10,23,21,05,9.60
2020,10,23,21,06,11.30
2020,10,23,21,07,14.50
2020,10,23,21,08,6.40
2020,10,23,21,09,9.60
2020,10,23,21,10,9.60
2020,10,23,21,11,14.50
2020,10,23,21,12,11.30
2020,10,23,21,13,9.60
2020,10,23,21,14,9.60
2020,10,23,21,15,9.60
2020,10,23,21,16,6.40
2020,10,23,21,17,8.10
2020,10,23,21,18,9.60
2020,10,23,21,19,9.60
2020,10,23,21,20,9.60
2020,10,23,21,21,8.10
2020,10,23,21,22,8.10
2020,10,23,21,23,6.40
2020,10,23,21,24,8.10
2020,10,23,21,25,9.60
2020,10,23,21,26,11.30
2020,10,23,21,27,9.60
2020,10,23,21,28,6.40
2020,10,23,21,29,6.40
2020,10,23,21,30,8.10
2020,10,23,21,31,8.10
2020,10,23,21,32,9.60
2020,10,23,21,33,6.40
2020,10,23,21,34,6.40
2020,10,23,21,35,6.40
2020,10,23,21,36,6.40
2020,10,23,21,37,6.40
2020,10,23,21,38,6.40
2020,10,23,21,39,4.80
2020,10,23,21,40,4.80
2020,10,23,21,41,4.80
2020,10,23,21,42,3.20
2020,10,23,21,43,1.60
2020,10,23,21,44,1.60
2020,10,23,21,45,4.80
2020,10,23,21,46,4.80
2020,10,23,21,47,3.20
2020,10,23,21,48,3.20
2020,10,23,21,49,4.80
2020,10,23,21,50,6.40
2020,10,23,21,51,4.80
2020,10,23,21,52,11.30
2020,10,23,21,53,16.10
2020,10,23,21,54,16.10
2020,10,23,21,55,8.10
2020,10,23,21,56,8.10
2020,10,23,21,57,8.10
2020,10,23,21,58,9.60
2020,10,23,21,59,8.10
2020,10,23,22,00,8.10
2020,10,23,22,01,3.20
2020,10,23,22,02,3.20
2020,10,23,22,03,3.20
2020,10,23,22,04,3.20
2020,10,23,22,05,6.40
2020,10,23,22,06,6.40
2020,10,23,22,07,6.40
2020,10,23,22,08,4.80
2020,10,23,22,09,9.60
2020,10,23,22,10,8.10
2020,10,23,22,11,6.40
2020,10,23,22,12,4.80
2020,10,23,22,13,3.20
2020,10,23,22,14,4.80
2020,10,23,22,15,6.40
2020,10,23,22,16,6.40
2020,10,23,22,17,8.10
2020,10,23,22,18,6.40
2020,10,23,22,19,8.10
2020,10,23,22,20,9.60
2020,10,23,22,21,8.10
2020,10,23,22,22,4.80
2020,10,23,22,23,8.10
2020,10,23,22,24,9.60
2020,10,23,22,25,8.10
2020,10,23,22,26,6.40
2020,10,23,22,27,9.60
2020,10,23,22,28,11.30
2020,10,23,22,29,4.80
2020,10,23,22,30,8.10
2020,10,23,22,31,14.50
2020,10,23,22,32,8.10
2020,10,23,22,33,12.90
2020,10,23,22,34,9.60
2020,10,23,22,35,16.10
2020,10,23,22,36,14.50
2020,10,23,22,37,11.30
2020,10,23,22,38,6.40
2020,10,23,22,39,6.40
2020,10,23,22,40,9.60
2020,10,23,22,41,9.60
2020,10,23,22,42,8.10
2020,10,23,22,43,8.10
2020,10,23,22,44,16.10
2020,10,23,22,45,9.60
2020,10,23,22,46,6.40
2020,10,23,22,47,8.10
2020,10,23,22,48,6.40
2020,10,23,22,49,8.10
2020,10,23,22,50,9.60
2020,10,23,22,51,16.10
2020,10,23,22,52,9.60
2020,10,23,22,53,8.10
2020,10,23,22,54,9.60
2020,10,23,22,55,8.10
2020,10,23,22,56,16.10
2020,10,23,22,57,16.10
2020,10,23,22,58,9.60
2020,10,23,22,59,14.50
2020,10,23,23,00,20.90
2020,10,23,23,01,19.30
2020,10,23,23,02,16.10
2020,10,23,23,03,14.50
2020,10,23,23,04,17.70
2020,10,23,23,05,16.10
2020,10,23,23,06,11.30
2020,10,23,23,07,9.60
2020,10,23,23,08,9.60
2020,10,23,23,09,16.10
2020,10,23,23,10,16.10
2020,10,23,23,11,14.50
2020,10,23,23,12,9.60
2020,10,23,23,13,9.60
2020,10,23,23,14,16.10
2020,10,23,23,15,9.60